Weather History for Whiteman AFB, MO

Change the Weather History Date:

Tuesday, February 14, 2012

  Actual Average Record
Temperature  
Mean Temperature 38 °F -  
Max Temperature 43 °F 44 °F 64 °F (2006)
Min Temperature 32 °F 27 °F 6 °F (2007)
Degree Days  
Heating Degree Days 28    
Moisture  
Dew Point 34 °F    
Average Humidity 93    
Maximum Humidity 100    
Minimum Humidity 71    
Precipitation  
Precipitation 0.00 in - - ()
Sea Level Pressure  
Sea Level Pressure 29.90 in    
Wind  
Wind Speed 7 mph (SW)    
Max Wind Speed 14 mph    
Max Gust Speed -    
Visibility 9 miles    
Events      
Averages and records for this station are not official NWS values.
T = Trace of Precipitation, MM = Missing Value Source: NWS Daily Summary

Daily Weather History Graph

Daily Weather History Graph

Search for Another Location

Airport:

Trip Planner

Search our weather history database for the weather conditions in past years. The results will help you decide how hot, cold, wet, or windy it might be!

Date:

Astronomy

Feb. 14, 2012 Rise Set
Actual Time 7:06 AM CST 5:50 PM CST
Civil Twilight 6:39 AM CST 6:17 PM CST
Nautical Twilight 6:08 AM CST 6:48 PM CST
Astronomical Twilight 5:37 AM CST 7:19 PM CST
Moon 12:51 AM CST (2/14) 10:57 AM CST (2/14)
Length of Visible Light 11h 37m
Length of Day
10h 43m
Waning Gibbous, 50% of the Moon is Illuminated
Feb 14
Waning Gibbous
Feb 21
New
Feb 29
First Quarter
Mar 8
Full
Mar 14
Last Quarter

Hourly Weather History & Observations

Time (CST) Temp. Windchill Dew Point Humidity Pressure Visibility Wind Dir Wind Speed Gust Speed Precip Events Conditions
12:02 AM 32.0 °F 25.6 °F 32.0 °F 100% 29.82 in 5.0 mi SSW 6.9 mph - N/A   Overcast
12:12 AM 32.0 °F 25.6 °F 32.0 °F 100% 29.82 in 5.0 mi SSW 6.9 mph - N/A   Overcast
12:55 AM 32.7 °F 26.4 °F 32.7 °F 100% 29.82 in 5.0 mi SW 6.9 mph - 0.00 in   Overcast
1:55 AM 33.1 °F 26.1 °F 33.1 °F 100% 29.83 in 9.0 mi WSW 8.1 mph - N/A   Overcast
2:24 AM 33.8 °F 27.7 °F 33.8 °F 100% 29.84 in 9.0 mi WSW 6.9 mph - N/A   Overcast
2:34 AM 33.8 °F 27.7 °F 33.8 °F 100% 29.84 in 9.0 mi West 6.9 mph - N/A   Overcast
2:55 AM 33.3 °F 27.9 °F 33.3 °F 100% 29.85 in 9.0 mi WSW 5.8 mph - N/A   Overcast
3:09 AM 33.8 °F 28.6 °F 33.8 °F 100% 29.85 in 9.0 mi West 5.8 mph - N/A   Overcast
3:19 AM 33.8 °F 27.7 °F 33.8 °F 100% 29.85 in 10.0 mi West 6.9 mph - N/A   Overcast
3:40 AM 33.8 °F 27.7 °F 33.8 °F 100% 29.85 in 10.0 mi West 6.9 mph - N/A   Overcast
3:55 AM 33.3 °F 25.7 °F 33.3 °F 100% 29.86 in 10.0 mi West 9.2 mph - N/A   Overcast
4:23 AM 33.8 °F 26.4 °F 33.8 °F 100% 29.86 in 10.0 mi West 9.2 mph - N/A   Overcast
4:55 AM 33.3 °F 27.1 °F 33.3 °F 100% 29.87 in 10.0 mi West 6.9 mph - N/A   Overcast
5:55 AM 33.1 °F 27.7 °F 33.1 °F 100% 29.89 in 10.0 mi NW 5.8 mph - N/A   Overcast
6:14 AM 33.8 °F 28.6 °F 33.8 °F 100% 29.91 in 10.0 mi West 5.8 mph - N/A   Overcast
6:55 AM 32.9 °F 27.5 °F 32.7 °F 99% 29.91 in 10.0 mi West 5.8 mph - N/A   Overcast
7:16 AM 33.8 °F 28.6 °F 32.0 °F 93% 29.93 in 10.0 mi West 5.8 mph - N/A   Overcast
7:55 AM 32.9 °F 27.5 °F 32.7 °F 99% 29.94 in 10.0 mi West 5.8 mph - N/A   Overcast
8:01 AM 33.8 °F 30.8 °F 32.0 °F 93% 29.94 in 10.0 mi SW 3.5 mph - N/A   Overcast
8:55 AM 33.6 °F 28.4 °F 33.4 °F 99% 29.96 in 10.0 mi SW 5.8 mph - N/A   Overcast
9:55 AM 34.9 °F 29.0 °F 32.4 °F 91% 29.96 in 10.0 mi WSW 6.9 mph - N/A   Scattered Clouds
10:55 AM 36.5 °F 31.8 °F 32.5 °F 86% 29.95 in 10.0 mi SSW 5.8 mph - N/A   Scattered Clouds
11:55 AM 37.9 °F 32.1 °F 33.1 °F 83% 29.96 in 10.0 mi SSW 8.1 mph - N/A   Scattered Clouds
12:55 PM 39.7 °F 31.9 °F 33.4 °F 78% 29.95 in 10.0 mi SSW 13.8 mph - N/A   Partly Cloudy
1:55 PM 41.0 °F 34.7 °F 35.1 °F 79% 29.94 in 10.0 mi SSW 10.4 mph - N/A   Clear
2:55 PM 42.3 °F 36.3 °F 35.1 °F 76% 29.93 in 10.0 mi SSW 10.4 mph - N/A   Clear
3:55 PM 43.5 °F 37.5 °F 34.7 °F 71% 29.92 in 10.0 mi SSW 11.5 mph - N/A   Clear
4:55 PM 42.6 °F 37.8 °F 35.4 °F 76% 29.93 in 10.0 mi SSW 8.1 mph - N/A   Mostly Cloudy
5:55 PM 39.9 °F 34.5 °F 36.9 °F 89% 29.93 in 10.0 mi South 8.1 mph - N/A   Overcast
6:55 PM 37.9 °F 34.4 °F 35.8 °F 92% 29.94 in 10.0 mi SSE 4.6 mph - N/A   Partly Cloudy
7:55 PM 37.0 °F 33.3 °F 34.3 °F 90% 29.94 in 10.0 mi SE 4.6 mph - N/A   Clear
8:55 PM 37.2 °F 32.6 °F 34.5 °F 90% 29.95 in 10.0 mi SSE 5.8 mph - N/A   Clear
9:55 PM 37.2 °F 32.6 °F 34.9 °F 91% 29.94 in 10.0 mi SE 5.8 mph - N/A   Clear
10:55 PM 37.2 °F 33.6 °F 35.4 °F 93% 29.94 in 10.0 mi SSE 4.6 mph - N/A   Clear
11:55 PM 37.2 °F 32.6 °F 36.0 °F 95% 29.94 in 10.0 mi SE 5.8 mph - N/A   Mostly Cloudy